Aérodrome :
LOGIN :

S'inscrire | Disclaimer

   EN    FR    IT 

 










Légende :    VFR   VFR Marginal   IFR   IFR Intensif   IFR Très Intensif
Visi : 
Plafond : 
>= 8 km
>= 3000ft
5 à 8 km
1000 à 3000 ft
1500m à 5 km
500 à 1000 ft
800 à 1500m
200 à 500 ft
< 800m
< 200 ft
Symboles :   Orages  Brouillard  Fortes neiges  Fortes précipitations  Vent > 20 kt
SIGMETs :   Divers  Orages  Givrage  Turbulence  Onde Orograph.  Cendres Volcan.






- Altitude de l'aérodrome : 15 ft
- Code IATA : BHD


EGAC - George Best Belfast City

DERNIER METAR :
  • 220220Z AUTO 21006KT 170V230 9999 OVC021/// 07/04 Q1037

METARs EXPIRÉS :
  • 220150Z AUTO 22006KT 9999 OVC021/// 08/04 Q1037
  • 220120Z AUTO 23007KT 210V270 9999 OVC022/// 07/04 Q1037
  • 220050Z AUTO 23007KT 9999 OVC024/// 07/04 Q1037
  • 220020Z AUTO 21005KT 9999 OVC026/// 07/04 Q1037
  • 212350Z AUTO 18006KT 9999 OVC026/// 07/04 Q1037

Prévision TAF périmée.
ATIS : +44 02890 935 124



MET'MAP, la Météo Aéronautique d'un coup d'oeil ! - Copyright ORBIFLY Décembre 2007 - Disclaimer

ORBIFLY MET'MAP TEAM :

Programmation & Développement : Alexandra Zaïnal
Sur une idée originale de : Baudouin d'Aumeries
Assistance à la programmation : Marc-Olivier Méhu
Soutien technique & logistique : Manuel Goepfert

Contact : metmap@orbifly.com




SOURCES & CREDITS :

   NOAA